Weather History for Cork Airport, Ireland

Change the Weather History Date:

Sunday, March 3, 2013

  Actual Average Record
Temperature  
Mean Temperature 38 °F -  
Max Temperature 40 °F 49 °F - ()
Min Temperature 37 °F 38 °F - ()
Degree Days  
Heating Degree Days 26    
Moisture  
Dew Point 34 °F    
Average Humidity 83    
Maximum Humidity 87    
Minimum Humidity 73    
Precipitation  
Precipitation 0.00 in 0.12 in - ()
Sea Level Pressure  
Sea Level Pressure 30.11 in    
Wind  
Wind Speed 9 mph ()    
Max Wind Speed 15 mph    
Max Gust Speed -    
Visibility 6.6 miles    
Events      
T = Trace of Precipitation, MM = Missing Value Source: Averaged Metar Reports

Daily Weather History Graph

Daily Weather History Graph

Search for Another Location

Airport:

Trip Planner

Search our weather history database for the weather conditions in past years. The results will help you decide how hot, cold, wet, or windy it might be!

Date:

Astronomy

Mar. 03, 2013 Rise Set
Actual Time 7:14 AM GMT 6:17 PM GMT
Civil Twilight 6:41 AM GMT 6:51 PM GMT
Nautical Twilight 6:02 AM GMT 7:30 PM GMT
Astronomical Twilight 5:23 AM GMT 8:09 PM GMT
Moon 12:26 AM GMT (3/3) 9:31 AM GMT (3/3)
Length of Visible Light 12h 10m
Length of Day
11h 02m
Waning Gibbous, 66% of the Moon is Illuminated
Mar 3
Waning Gibbous
Mar 4
Last Quarter
Mar 11
New
Mar 19
First Quarter
Mar 27
Full

Hourly Weather History & Observations

Time (GMT) Temp. Windchill Dew Point Humidity Pressure Visibility Wind Dir Wind Speed Gust Speed Precip Events Conditions
12:00 AM 39.2 °F 33.6 °F 33.8 °F 81% 30.24 in 6.2 mi NE 8.1 mph - N/A   Mostly Cloudy
12:30 AM 39.2 °F 33.6 °F 33.8 °F 81% 30.24 in 6.2 mi NE 8.1 mph - N/A   Mostly Cloudy
1:00 AM 39.2 °F 33.0 °F 33.8 °F 81% 30.24 in 6.2 mi NNE 9.2 mph - N/A   Mostly Cloudy
1:30 AM 37.4 °F 32.1 °F 33.8 °F 87% 30.24 in 6.2 mi NE 6.9 mph - N/A   Mostly Cloudy
2:00 AM 39.2 °F 34.2 °F 35.6 °F 87% 30.21 in 6.2 mi East 6.9 mph - N/A   Mostly Cloudy
2:30 AM 39.2 °F 32.0 °F 35.6 °F 87% 30.21 in 6.2 mi NE 11.5 mph - N/A   Mostly Cloudy
3:00 AM 39.2 °F 32.5 °F 33.8 °F 81% 30.21 in 6.2 mi NE 10.4 mph - N/A   Mostly Cloudy
3:30 AM 37.4 °F 30.8 °F 33.8 °F 87% 30.18 in 6.2 mi NE 9.2 mph - N/A   Mostly Cloudy
4:00 AM 37.4 °F 30.8 °F 33.8 °F 87% 30.18 in 6.2 mi NE 9.2 mph - N/A   Mostly Cloudy
4:30 AM 37.4 °F 30.8 °F 33.8 °F 87% 30.18 in 6.2 mi NNE 9.2 mph - N/A   Mostly Cloudy
5:00 AM 39.2 °F 35.0 °F 33.8 °F 81% 30.15 in 6.2 mi NE 5.8 mph - N/A   Mostly Cloudy
5:30 AM 39.2 °F 35.9 °F 33.8 °F 81% 30.15 in 6.2 mi ENE 4.6 mph - N/A   Mostly Cloudy
6:00 AM 39 °F - 35 °F 79% 30.19 in 19 mi East 6.7 mph - -   Mostly Cloudy
6:00 AM 39.2 °F 34.2 °F 35.6 °F 87% 30.15 in 6.2 mi East 6.9 mph - N/A   Mostly Cloudy
6:30 AM 39.2 °F 33.6 °F 35.6 °F 87% 30.15 in 6.2 mi East 8.1 mph - N/A   Mostly Cloudy
7:00 AM 39.2 °F 34.2 °F 35.6 °F 87% 30.15 in 6.2 mi East 6.9 mph - N/A   Mostly Cloudy
7:30 AM 39.2 °F 33.6 °F 35.6 °F 87% 30.15 in 6.2 mi ESE 8.1 mph - N/A   Mostly Cloudy
8:00 AM 39.2 °F 33.0 °F 35.6 °F 87% 30.15 in 6.2 mi ESE 9.2 mph - N/A   Mostly Cloudy
8:30 AM 39.2 °F 33.0 °F 33.8 °F 81% 30.15 in 6.2 mi ESE 9.2 mph - N/A   Mostly Cloudy
9:00 AM 39.2 °F 33.6 °F 33.8 °F 81% 30.15 in 6.2 mi ESE 8.1 mph - N/A   Mostly Cloudy
9:30 AM 41.0 °F 35.2 °F 33.8 °F 76% 30.15 in 6.2 mi ESE 9.2 mph - N/A   Mostly Cloudy
10:00 AM 41.0 °F 33.9 °F 33.8 °F 76% 30.12 in 6.2 mi ESE 12.7 mph - N/A   Mostly Cloudy
10:30 AM 41.0 °F 33.5 °F 33.8 °F 76% 30.12 in 6.2 mi ESE 13.8 mph - N/A   Mostly Cloudy
11:00 AM 41.0 °F 33.5 °F 33.8 °F 76% 30.12 in 6.2 mi ESE 13.8 mph - N/A   Mostly Cloudy
11:30 AM 41.0 °F 33.5 °F 33.8 °F 76% 30.12 in 6.2 mi East 13.8 mph - N/A   Mostly Cloudy
12:00 PM 40 °F - 34 °F 73% 30.15 in 12 mi ESE 13.4 mph - -   Mostly Cloudy
12:00 PM 41.0 °F 33.5 °F 33.8 °F 76% 30.12 in 6.2 mi ESE 13.8 mph - N/A   Mostly Cloudy
12:30 PM 41.0 °F 33.1 °F 35.6 °F 81% 30.09 in 6.2 mi East 15.0 mph - N/A   Mostly Cloudy
1:00 PM 41.0 °F 33.1 °F 33.8 °F 76% 30.09 in 6.2 mi ESE 15.0 mph - N/A   Mostly Cloudy
1:30 PM 41.0 °F 34.7 °F 35.6 °F 81% 30.09 in 6.2 mi ESE 10.4 mph - N/A   Mostly Cloudy
2:00 PM 41.0 °F 34.3 °F 35.6 °F 81% 30.09 in 6.2 mi ESE 11.5 mph - N/A   Mostly Cloudy
2:30 PM 41.0 °F 33.1 °F 35.6 °F 81% 30.06 in 6.2 mi East 15.0 mph - N/A   Mostly Cloudy
3:00 PM 39.2 °F 31.6 °F 35.6 °F 87% 30.06 in 6.2 mi East 12.7 mph - N/A   Mostly Cloudy
3:30 PM 39.2 °F 30.8 °F 33.8 °F 81% 30.04 in 6.2 mi East 15.0 mph - N/A   Mostly Cloudy
4:00 PM 39.2 °F 31.6 °F 33.8 °F 81% 30.04 in 6.2 mi East 12.7 mph - N/A   Mostly Cloudy
4:30 PM 39.2 °F 31.6 °F 33.8 °F 81% 30.04 in 6.2 mi ESE 12.7 mph - N/A   Mostly Cloudy
5:00 PM 39.2 °F 32.0 °F 33.8 °F 81% 30.04 in 6.2 mi East 11.5 mph - N/A   Mostly Cloudy
5:30 PM 37.4 °F 29.3 °F 33.8 °F 87% 30.04 in 6.2 mi ESE 12.7 mph - N/A   Mostly Cloudy
6:00 PM 38 °F - 34 °F 80% 30.06 in 7 mi East 11.2 mph - -   Mist
6:00 PM 37.4 °F 29.8 °F 33.8 °F 87% 30.04 in 6.2 mi East 11.5 mph - N/A   Mostly Cloudy
6:30 PM 37.4 °F 28.9 °F 33.8 °F 87% 30.04 in 6.2 mi East 13.8 mph - N/A   Mostly Cloudy
7:00 PM 37.4 °F 30.3 °F 33.8 °F 87% 30.04 in 6.2 mi East 10.4 mph - N/A   Mostly Cloudy
7:30 PM 37.4 °F 29.8 °F 33.8 °F 87% 30.01 in 6.2 mi East 11.5 mph - N/A   Mostly Cloudy
8:00 PM 37.4 °F 29.8 °F 33.8 °F 87% 30.01 in 6.2 mi East 11.5 mph - N/A   Mostly Cloudy
8:30 PM 37.4 °F 29.3 °F 33.8 °F 87% 30.01 in 6.2 mi East 12.7 mph - N/A   Mostly Cloudy
9:00 PM 37.4 °F 30.8 °F 33.8 °F 87% 30.01 in 6.2 mi ESE 9.2 mph - N/A   Mostly Cloudy
9:30 PM 37.4 °F 30.3 °F 33.8 °F 87% 30.01 in 6.2 mi ESE 10.4 mph - N/A   Mostly Cloudy
10:00 PM 37.4 °F 30.3 °F 33.8 °F 87% 30.01 in 6.2 mi ESE 10.4 mph - N/A   Mostly Cloudy
10:30 PM 39.2 °F 32.5 °F 33.8 °F 81% 29.98 in 6.2 mi East 10.4 mph - N/A   Mostly Cloudy
11:00 PM 39.2 °F 32.5 °F 33.8 °F 81% 29.98 in 6.2 mi East 10.4 mph - N/A   Mostly Cloudy
11:30 PM 39.2 °F 32.5 °F 33.8 °F 81% 29.95 in 6.2 mi East 10.4 mph - N/A   Mostly Cloudy